This is the latest recevied weather packets stored in our database for station/object N4ASP-13. If no packets are shown the sender has not sent any weather packets the latest 10 day(s).
| Time | Temp. | Humidity | Pressure | Rain* | Wind** | Luminosity | Snow |
|---|---|---|---|---|---|---|---|
| 1777574177 | 18.33° C | 55% | 1010.7 hPa | 0 mm | - | 1281 W/m² | - |
| 1777574117 | 18.33° C | 53% | 1010.8 hPa | 0 mm | - | 1281 W/m² | - |
| 1777574051 | 18.33° C | 56% | 1010.8 hPa | 0 mm | - | 1281 W/m² | - |
| 1777573991 | 17.78° C | 56% | 1010.8 hPa | 0 mm | - | 1281 W/m² | - |
| 1777573930 | 17.78° C | 57% | 1010.8 hPa | 0 mm | - | 1281 W/m² | - |
| 1777573871 | 17.78° C | 58% | 1010.7 hPa | 0 mm | - | 1297 W/m² | - |
| 1777573811 | 17.78° C | 57% | 1010.8 hPa | 0 mm | - | 376 W/m² | - |
| 1777573746 | 17.78° C | 57% | 1010.8 hPa | 0 mm | - | 376 W/m² | - |
| 1777573685 | 17.78° C | 56% | 1010.8 hPa | 0 mm | - | 376 W/m² | - |
| 1777573624 | 17.78° C | 55% | 1010.7 hPa | 0 mm | - | 383 W/m² | - |
| 1777573565 | 17.78° C | 54% | 1010.7 hPa | 0 mm | - | 362 W/m² | - |
| 1777573504 | 17.78° C | 56% | 1010.7 hPa | 0 mm | - | 404 W/m² | - |
| 1777573444 | 18.33° C | 55% | 1010.8 hPa | 0 mm | - | 332 W/m² | - |
| 1777573383 | 18.33° C | 55% | 1010.8 hPa | 0 mm | - | 309 W/m² | - |
| 1777573324 | 18.33° C | 54% | 1010.7 hPa | 0 mm | - | 309 W/m² | - |
| 1777573265 | 18.33° C | 55% | 1010.8 hPa | 0 mm | - | 306 W/m² | - |
| 1777573204 | 18.33° C | 55% | 1010.8 hPa | 0 mm | - | 311 W/m² | - |
| 1777573144 | 18.33° C | 55% | 1010.8 hPa | 0 mm | - | 343 W/m² | - |
| 1777573085 | 18.33° C | 55% | 1010.8 hPa | 0 mm | - | 362 W/m² | - |
| 1777573024 | 18.33° C | 54% | 1010.8 hPa | 0 mm | - | 406 W/m² | - |
| 1777572963 | 18.33° C | 55% | 1010.8 hPa | 0 mm | - | 385 W/m² | - |
| 1777572904 | 18.33° C | 55% | 1010.9 hPa | 0 mm | - | 376 W/m² | - |
| 1777572843 | 18.33° C | 56% | 1010.8 hPa | 0 mm | - | 378 W/m² | - |
| 1777572783 | 18.33° C | 55% | 1010.8 hPa | 0 mm | - | 381 W/m² | - |
| 1777572723 | 18.33° C | 55% | 1010.8 hPa | 0 mm | - | 378 W/m² | - |
* Rain latest hour (hover to see other rain measurements)
** Current wind speed in m/s (hover to see current wind gust speed)